This is the latest recevied weather packets stored in our database for station/object W1REE. If no packets are shown the sender has not sent any weather packets the latest 1 day(s).
| Time | Temp. | Humidity | Pressure | Rain* | Wind** | Luminosity | Snow |
|---|---|---|---|---|---|---|---|
| 1778025953 | 2.22° C | 97% | 1013.6 hPa | 0 mm | 0 m/s | 10 W/m² | - |
| 1778025651 | 2.22° C | 97% | 1013.5 hPa | 0 mm | 0 m/s | 11 W/m² | - |
| 1778025349 | 2.22° C | 97% | 1013.5 hPa | 0 mm | 0 m/s | 14 W/m² | - |
| 1778025045 | 2.22° C | 97% | 1013.6 hPa | 0 mm | 0 m/s | 15 W/m² | - |
| 1778024742 | 2.22° C | 96% | 1013.4 hPa | 0 mm | 0 m/s | 25 W/m² | - |
| 1778024439 | 2.22° C | 96% | 1013.3 hPa | 0 mm | 0.45 m/s, 24° | 29 W/m² | - |
| 1778024137 | 2.22° C | 96% | 1013.1 hPa | 0 mm | 0 m/s | 32 W/m² | - |
| 1778023834 | 2.22° C | 96% | 1013 hPa | 1.78 mm | 0 m/s | 29 W/m² | - |
| 1778023532 | 2.22° C | 96% | 1012.9 hPa | 1.78 mm | 0 m/s | 35 W/m² | - |
| 1778023229 | 2.22° C | 96% | 1013 hPa | 1.27 mm | 0.45 m/s, 43° | 30 W/m² | - |
| 1778022926 | 2.22° C | 96% | 1012.8 hPa | 1.27 mm | 0.45 m/s, 1° | 32 W/m² | - |
| 1778022625 | 2.78° C | 96% | 1012.9 hPa | 1.78 mm | 0.89 m/s, 40° | 34 W/m² | - |
| 1778022321 | 2.78° C | 96% | 1012.9 hPa | 1.78 mm | 0.45 m/s, 17° | 43 W/m² | - |
| 1778022018 | 2.78° C | 96% | 1012.8 hPa | 0 mm | 0 m/s | 37 W/m² | - |
| 1778021715 | 2.78° C | 96% | 1012.5 hPa | 0 mm | 0 m/s | 44 W/m² | - |
| 1778021411 | 2.78° C | 96% | 1012.7 hPa | 0 mm | 0 m/s | 54 W/m² | - |
| 1778021108 | 2.78° C | 96% | 1012.5 hPa | 0 mm | 0 m/s | 46 W/m² | - |
| 1778020805 | 2.78° C | 96% | 1012.4 hPa | 0 mm | 0 m/s | 69 W/m² | - |
| 1778020502 | 2.78° C | 96% | 1012.7 hPa | 0 mm | 0 m/s | 57 W/m² | - |
| 1778020198 | 3.33° C | 96% | 1012.5 hPa | 0 mm | 0 m/s | 73 W/m² | - |
| 1778019895 | 2.78° C | 96% | 1012.7 hPa | 0 mm | 0 m/s | 70 W/m² | - |
| 1778019590 | 2.78° C | 96% | 1012.5 hPa | 0 mm | 0.45 m/s, 17° | 57 W/m² | - |
| 1778019288 | 2.78° C | 96% | 1012.5 hPa | 0 mm | 1.34 m/s, 135° | 84 W/m² | - |
| 1778018985 | 2.78° C | 96% | 1012.5 hPa | 0 mm | 0.45 m/s, 38° | 68 W/m² | - |
| 1778018682 | 2.78° C | 96% | 1012.8 hPa | 0 mm | 0 m/s | 77 W/m² | - |
* Rain latest hour (hover to see other rain measurements)
** Current wind speed in m/s (hover to see current wind gust speed)